User: anonymous   Login
Location: Bushey
(51.6333°N, 0.3667°W)
Time: 13:40:18
(UTC+00:00)
Language:

HJ-1C - Orbit

View from above orbital plane
View from above orbital plane
View from above satellite
View from above satellite

Ground track
Ground track

The orbit data is extracted from the following two-line orbital elements,

1 38997U 12064A   21129.08414228  .00002206  00000-0  49888-4 0  9994
2 38997  97.1224 158.8453 0007198 258.8698 188.3066 15.44202899476001
Epoch (UTC): 09 May 2021 02:01:09
Eccentricity: 0.0007198
inclination: 97.1224°
perigee height: 429 km
apogee height: 438 km
right ascension of ascending node: 158.8453°
argument of perigee: 258.8698°
revolutions per day: 15.44202899
mean anomaly at epoch: 188.3066°
orbit number at epoch: 47600

The dashed part of the orbit path shows where the satellite is in the earth's shadow,  

DLR